Time,TemperatureF,DewpointF,PressureIn,WindDirection,WindDirectionDegrees,WindSpeedMPH,WindSpeedGustMPH,Humidity,HourlyPrecipIn,Conditions,Clouds,dailyrainin,SoftwareType,DateUTC
2013-10-13 00:21:00,63.0,10.0,29.82,North,0,0.0,-999.0,12,-99.99,,,-99.99,,2013-10-13 07:21:00,
2013-10-13 00:32:00,63.0,10.0,29.82,North,0,0.0,-999.0,12,-99.99,,,-99.99,,2013-10-13 07:32:00,
2013-10-13 00:42:00,63.0,10.0,29.82,North,0,0.0,-999.0,12,-99.99,,,-99.99,,2013-10-13 07:42:00,
2013-10-13 01:22:00,64.0,18.0,29.82,North,0,0.0,-999.0,16,-99.99,,,-99.99,,2013-10-13 08:22:00,
2013-10-13 01:32:00,64.0,18.0,29.82,North,0,0.0,-999.0,16,-99.99,,,-99.99,,2013-10-13 08:32:00,
2013-10-13 01:42:00,64.0,18.0,29.82,North,0,0.0,-999.0,16,-99.99,,,-99.99,,2013-10-13 08:42:00,
2013-10-13 02:22:00,63.0,21.0,29.82,SSW,200,8.0,-999.0,20,-99.99,,,-99.99,,2013-10-13 09:22:00,
2013-10-13 02:33:00,63.0,21.0,29.82,SSW,200,8.0,-999.0,20,-99.99,,,-99.99,,2013-10-13 09:33:00,
2013-10-13 02:43:00,63.0,21.0,29.82,SSW,200,8.0,-999.0,20,-99.99,,,-99.99,,2013-10-13 09:43:00,
2013-10-13 02:53:00,63.0,21.0,29.82,SSW,200,8.0,-999.0,20,-99.99,,,-99.99,,2013-10-13 09:53:00,
2013-10-13 03:43:00,63.0,25.0,29.83,South,190,5.0,-999.0,23,-99.99,,,-99.99,,2013-10-13 10:43:00,
2013-10-13 03:52:00,63.0,25.0,29.83,South,190,5.0,-999.0,23,-99.99,,,-99.99,,2013-10-13 10:52:00,
2013-10-13 04:21:00,63.0,28.0,29.82,WSW,250,18.0,24.0,27,0.00,,,-99.99,,2013-10-13 11:21:00,
2013-10-13 04:33:00,63.0,28.0,29.82,WSW,250,18.0,24.0,27,0.00,,,-99.99,,2013-10-13 11:33:00,
2013-10-13 04:42:00,63.0,28.0,29.82,WSW,250,18.0,24.0,27,0.00,,,-99.99,,2013-10-13 11:42:00,
2013-10-13 04:52:00,63.0,28.0,29.82,WSW,250,18.0,24.0,27,-99.99,,,-99.99,,2013-10-13 11:52:00,
2013-10-13 05:21:00,61.0,37.0,29.84,South,190,22.0,30.0,41,-99.99,,,-99.99,,2013-10-13 12:21:00,
2013-10-13 05:32:00,61.0,37.0,29.84,South,190,22.0,30.0,41,-99.99,,,-99.99,,2013-10-13 12:32:00,
2013-10-13 05:42:00,61.0,37.0,29.84,South,190,22.0,30.0,41,-99.99,,,-99.99,,2013-10-13 12:42:00,
2013-10-13 05:52:00,61.0,37.0,29.84,South,190,22.0,30.0,41,-99.99,,,-99.99,,2013-10-13 12:52:00,
2013-10-13 06:22:00,61.0,36.0,29.86,South,170,16.0,23.0,38,-99.99,,,-99.99,,2013-10-13 13:22:00,
2013-10-13 06:32:00,61.0,36.0,29.86,South,170,16.0,23.0,38,-99.99,,,-99.99,,2013-10-13 13:32:00,
2013-10-13 06:42:00,61.0,36.0,29.86,South,170,16.0,23.0,38,-99.99,,,-99.99,,2013-10-13 13:42:00,
2013-10-13 06:52:00,61.0,36.0,29.86,South,170,16.0,23.0,38,-99.99,,,-99.99,,2013-10-13 13:52:00,
2013-10-13 07:21:00,61.0,34.0,29.85,South,190,18.0,30.0,36,-99.99,,,-99.99,,2013-10-13 14:21:00,
2013-10-13 07:32:00,61.0,34.0,29.85,South,190,18.0,30.0,36,-99.99,,,-99.99,,2013-10-13 14:32:00,
2013-10-13 07:42:00,61.0,34.0,29.85,South,190,18.0,30.0,36,-99.99,,,-99.99,,2013-10-13 14:42:00,
2013-10-13 07:52:00,61.0,34.0,29.85,South,190,18.0,30.0,36,-99.99,,,-99.99,,2013-10-13 14:52:00,
2013-10-13 08:22:00,63.0,32.0,29.88,West,280,5.0,-999.0,31,-99.99,,,-99.99,,2013-10-13 15:22:00,
2013-10-13 08:33:00,63.0,32.0,29.88,West,280,5.0,-999.0,31,-99.99,,,-99.99,,2013-10-13 15:33:00,
2013-10-13 08:43:00,63.0,32.0,29.88,West,280,5.0,-999.0,31,-99.99,,,-99.99,,2013-10-13 15:43:00,
2013-10-13 08:54:00,63.0,32.0,29.88,West,280,5.0,-999.0,31,-99.99,,,-99.99,,2013-10-13 15:54:00,
2013-10-13 13:22:00,72.0,23.0,29.87,North,-99,6.0,-999.0,15,-99.99,,,-99.99,,2013-10-13 20:22:00,
2013-10-13 13:32:00,72.0,23.0,29.87,North,-99,6.0,-999.0,15,-99.99,,,-99.99,,2013-10-13 20:32:00,
2013-10-13 13:43:00,72.0,23.0,29.87,North,-99,6.0,-999.0,15,-99.99,,,-99.99,,2013-10-13 20:43:00,
2013-10-13 13:52:00,72.0,23.0,29.87,North,-99,6.0,-999.0,15,-99.99,,,-99.99,,2013-10-13 20:52:00,
2013-10-13 15:24:00,73.0,25.0,29.87,North,-99,6.0,-999.0,16,-99.99,,,-99.99,,2013-10-13 22:24:00,
2013-10-13 15:32:00,73.0,25.0,29.87,North,-99,6.0,-999.0,16,-99.99,,,-99.99,,2013-10-13 22:32:00,
2013-10-13 15:43:00,73.0,25.0,29.87,North,-99,6.0,-999.0,16,-99.99,,,-99.99,,2013-10-13 22:43:00,
2013-10-13 15:53:00,73.0,25.0,29.87,North,-99,6.0,-999.0,16,-99.99,,,-99.99,,2013-10-13 22:53:00,
2013-10-13 16:22:00,73.0,25.0,29.88,North,0,0.0,-999.0,16,-99.99,,,-99.99,,2013-10-13 23:22:00,
2013-10-13 16:33:00,73.0,25.0,29.88,North,0,0.0,-999.0,16,-99.99,,,-99.99,,2013-10-13 23:33:00,
2013-10-13 16:42:00,73.0,25.0,29.88,North,0,0.0,-999.0,16,-99.99,,,-99.99,,2013-10-13 23:42:00,
2013-10-13 16:52:00,73.0,25.0,29.88,North,0,0.0,-999.0,16,-99.99,,,-99.99,,2013-10-13 23:52:00,
2013-10-13 17:21:00,73.0,21.0,29.90,ENE,60,9.0,-999.0,13,-99.99,,,-99.99,,2013-10-14 00:21:00,
2013-10-13 17:32:00,73.0,21.0,29.90,ENE,60,9.0,-999.0,13,-99.99,,,-99.99,,2013-10-14 00:32:00,
2013-10-13 17:42:00,73.0,21.0,29.90,ENE,60,9.0,-999.0,13,-99.99,,,-99.99,,2013-10-14 00:42:00,
2013-10-13 17:52:00,73.0,21.0,29.90,ENE,60,9.0,-999.0,13,-99.99,,,-99.99,,2013-10-14 00:52:00,
2013-10-13 18:21:00,72.0,21.0,29.92,NE,50,8.0,-999.0,14,-99.99,,,-99.99,,2013-10-14 01:21:00,
2013-10-13 18:32:00,72.0,21.0,29.92,NE,50,8.0,-999.0,14,-99.99,,,-99.99,,2013-10-14 01:32:00,
2013-10-13 18:42:00,72.0,21.0,29.92,NE,50,8.0,-999.0,14,-99.99,,,-99.99,,2013-10-14 01:42:00,
2013-10-13 18:52:00,72.0,21.0,29.92,NE,50,8.0,-999.0,14,-99.99,,,-99.99,,2013-10-14 01:52:00,